Regional Weather Roundup
Issued by NWS

Home | Current Version | Previous Version | Graphics & Text | Print | Product List | Glossary On
Versions: 1 2 3 4 5 6 7 8 9 10 11 12 13 14 15 16 17 18 19 20 21 22 23 24 25 26 27 28 29 30 31 32 33 34 35 36 37 38 39 40 41 42 43 44 45 46 47 48 49 50
000
ASUS43 KMPX 180701
RWRMN
WEATHER ROUNDUP FOR MINNESOTA
NATIONAL WEATHER SERVICE TWIN CITIES/CHANHASSEN MN
100 AM CST THU JAN 18 2018


NOTE: "FAIR" INDICATES FEW OR NO CLOUDS BELOW 12,000 FEET WITH NO
SIGNIFICANT WEATHER AND/OR OBSTRUCTIONS TO VISIBILITY. N/A MEANS
CURRENT SKY AND/OR WEATHER CONDITIONS ARE NOT AVAILABLE.

MNZ060>063-068>070-180800-
   Twin Cities Metro

CITY           SKY/WX    TMP DP  RH WIND       PRES   REMARKS
TWIN CITIES    FAIR      23  16  74 SW6       30.03S WCI  16
ST PAUL        FAIR      24  16  71 VRB3      30.03F
CRYSTAL        FAIR      23  14  68 SW6       30.00F WCI  16
BLAINE         FAIR      27  19  74 SW7       29.99F WCI  19
LAKEVILLE      FAIR      21  18  86 SW7       30.02F WCI  13
EDEN PRAIRIE   FAIR      22  15  75 SW8       30.02F WCI  12
SOUTH ST PAUL  FAIR      25  17  69 CALM      30.02S
LAKE ELMO      FAIR      25  18  74 SW9       30.01F WCI  15
$$
MNZ001>005-007-008-013>017-022>024-027-028-180800-
   Northwest Minnesota

CITY           SKY/WX    TMP DP  RH WIND       PRES   REMARKS
BEMIDJI        MOCLDY    31  22  68 SW12G18   29.78F WCI  22
HALLOCK        CLOUDY    36  27  69 W17       29.68F
ROSEAU         FLURRIES  34  27  75 SW17      29.66F WCI  23
WARROAD        FLURRIES  34  28  80 SW12G18   29.66F WCI  25
CROOKSTON      MOCLDY    27  23  86 SW14      29.78F WCI  15
FOSSTON        FAIR      25  19  80 S14       29.80F WCI  13
DETROIT LAKES  FAIR      32  23  69 W9        29.88F WCI  24
MOORHEAD       FAIR      30  21  69 SW14      29.88F WCI  20
PARK RAPIDS    FAIR      24  18  77 SW8       29.84F WCI  15
MAHNOMEN       PTSUNNY   27  21  80 SW13      29.84F WCI  16
$$
MNZ006-009>011-018-025>026-180800-
   North Central Minnesota

CITY           SKY/WX    TMP DP  RH WIND       PRES   REMARKS
BAUDETTE       CLOUDY    32  25  75 SW12G25   29.66F WCI  23
FLAG ISLAND    MIX PCPN  30  25  80 SW13      29.61F WCI  20
INTL FALLS     FAIR      23  19  85 SW6       29.69F WCI  16
WASKISH        FAIR      30  25  80 SW15      29.72F WCI  19
BIG FORK       FAIR      28  21  74 SW7       29.74F WCI  21
LONGVILLE      FAIR      28  21  74 SW8       29.83F WCI  20
GRAND RAPIDS   FAIR      28  22  78 SW7       29.82F WCI  21
CRANE LAKE     FAIR      18  18 100 S3        29.75F
ORR            FAIR      25  19  80 CALM      29.72F
COOK           FAIR      23  19  86 SW7       29.76F WCI  15
WALKER         FAIR      30  21  67 W12       29.81F WCI  21
$$
MNZ012-019>021-037-180800-
   Northeast Minnesota

CITY           SKY/WX    TMP DP  RH WIND       PRES   REMARKS
DULUTH         FAIR      23  17  78 W13       29.81F WCI  11
ELY            FAIR      19  16  86 SW6       29.75S WCI  11
HIBBING        FAIR      22  18  85 SW6       29.78F WCI  14
EVELETH        FAIR      15  11  84 SW5       29.79F WCI   7
DULUTH HARBOR  FAIR      25  18  74 SW15      29.87F WCI  12
TWO HARBORS    FAIR      19  14  79 SW6       29.80F WCI  11
SILVER BAY     FAIR      18  12  79 SW3       29.78F
GRAND MARAIS     N/A     22  15  75 W6        29.79F WCI  14
G MARAIS ARPRT FAIR      16  10  79 SW5       29.73S WCI   9
$$
MNZ029>031-032-039>041-046>048-054>057-064-180800-
   West Central Minnesota

CITY           SKY/WX    TMP DP  RH WIND       PRES   REMARKS
FERGUS FALLS   FAIR      18  16  93 SE6       29.94F WCI   9
WHEATON        CLOUDY    30  21  69 SW10      29.97F WCI  21
MORRIS         CLOUDY    27  21  80 W8        29.96F WCI  18
ALEXANDRIA     FAIR      26  20  77 SW9       29.95F WCI  17
ELBOW LAKE     FAIR      20  18  92 S9        29.95F WCI   9
WADENA         FAIR      27  21  80 W10       29.90F WCI  17
GLENWOOD       FAIR      21  19  93 SW10      29.96F WCI  10
APPLETON       CLOUDY    25  18  74 W9        29.99F WCI  15
BENSON         CLOUDY    21  18  86 CALM      30.00F
ORTONVILLE     CLOUDY    28  19  69 W9        29.99F WCI  20
MADISON        CLOUDY    30  25  80 W9        30.00F WCI  22
WILLMAR        FAIR      18  14  86 SW5       30.02F WCI  11
$$
MNZ033>034-036-042>043-049>051-058-059-180800-
   Central Minnesota

CITY           SKY/WX    TMP DP  RH WIND       PRES   REMARKS
ST CLOUD       FAIR      23  18  81 SW9       29.96F WCI  13
SAUK CENTRE      N/A     22  18  85 W3        29.95F
PAYNESVILLE    FAIR      20  18  91 W8        29.98F WCI  10
PINE RIVER     FAIR      27  19  74 SW5       29.90S WCI  21
BRAINERD       FAIR      25  18  74 SW9       29.89F WCI  15
STAPLES        FAIR      28  19  69 W10       29.90S WCI  19
LONG PRAIRIE   FAIR      23  19  86 S9        29.94F WCI  13
LITTLE FALLS     N/A    N/A N/A N/A S5          N/A
LITCHFIELD     FAIR      21  18  86 SW6       30.00F WCI  14
BUFFALO        FAIR      20  15  81 SW7       30.01S WCI  11
MAPLE LAKE     FAIR      24  19  82 MISG      30.00S
HUTCHINSON     FAIR      21  17  83 SW6       30.02F WCI  14
$$
MNZ037-044-045-052-053-180800-
   East Central Minnesota

CITY           SKY/WX    TMP DP  RH WIND       PRES   REMARKS
PRINCETON      FAIR      25  18  74 SW6       29.96F WCI  18
MORA           FAIR      21  18  86 SW5       29.95F WCI  15
CAMBRIDGE      FAIR      27  18  69 SW6       29.96F WCI  20
RUSH CITY      FAIR      25  18  76 SW7       29.95S WCI  17
MOOSE LAKE     FAIR      18  14  86 S5        29.86F WCI  11
HINCKLEY       FAIR      21  18  86 SW5       29.93S WCI  15
CLOQUET        FAIR      25  18  74 SW8       29.83F WCI  16
MCGREGOR       FAIR      27  21  80 SW6       29.87F WCI  20
$$
MNZ071>073-080-081-089-090-097-098-180800-
   Southwest Minnesota

CITY           SKY/WX    TMP DP  RH WIND       PRES   REMARKS
MONTEVIDEO     CLOUDY    27  19  74 W5        30.00F WCI  21
GRANITE FALLS  CLOUDY    25  20  82 SW9       30.03F WCI  15
CANBY          CLOUDY    33  24  69 SW13G21   30.01F WCI  24
MARSHALL       CLOUDY    27  20  75 W18       30.01F WCI  14
REDWOOD FALLS  CLOUDY    22  17  81 SW7       30.03F WCI  13
OLIVIA         CLOUDY    18  14  86 SW7       30.01F WCI   8
PIPESTONE      CLOUDY    18  12  79 W6        30.06F WCI   9
WINDOM         CLOUDY    23   9  54 SW13      30.05F WCI  11
WORTHINGTON    CLOUDY    21  16  81 SW14      30.06F WCI   8
JACKSON        CLOUDY    23  18  80 SW16      30.06F WCI  10
SLAYTON        CLOUDY    26  19  77 SW12      30.06R WCI  15
$$
MNZ065>067-074>077-082>085-091>093-180800-
   South Central Minnesota

CITY           SKY/WX    TMP DP  RH WIND       PRES   REMARKS
MANKATO        FAIR      25  18  74 SW14      30.05F WCI  13
NEW ULM        CLOUDY    19  14  79 SW8       30.03F WCI   9
ST JAMES       CLOUDY    21  18  86 SW8       30.06F WCI  12
FAIRMONT       CLOUDY    23  17  78 SW12      30.07F WCI  12
FARIBAULT      FAIR      19  16  86 SW8       30.04F WCI   9
OWATONNA       FAIR      19  16  86 SW10      30.04F WCI   8
WASECA         FAIR      19  14  79 SW9       30.07F WCI   9
ALBERT LEA     FAIR      21  14  73 SW9G23    30.07S WCI  11
$$
MNZ078>079-086>088-094>096-180800-
   Southeast Minnesota

CITY           SKY/WX    TMP DP  RH WIND       PRES   REMARKS
ROCHESTER      FAIR      20  14  77 SW20      30.04S WCI   4
RED WING       FAIR      21  14  73 CALM      30.03F
STANTON        FAIR      22  16  77 SW7       30.03F WCI  13
DODGE CENTER   FAIR      19  14  79 SW14      30.04S WCI   6
WINONA         FAIR      25  18  74 W7        30.06F WCI  17
PRESTON        FAIR      20  13  73 W17G24    30.07S WCI   5
$$
ABBREVIATIONS USED IN REMARKS
   TC - TEMPERATURES IN CELSIUS
  WCI - WIND CHILL INDEX
   HX - HEAT INDEX
  VSB - VISIBILITY
$$




USA.gov is the U.S. government's official web portal to all federal, state and local government web resources and services.